Change the Weather History Date:

Monday, November 12, 2012

  Actual Average Record
Temperature  
Mean Temperature 52 °F 56 °F  
Max Temperature 65 °F 69 °F 83 °F (1955)
Min Temperature 38 °F 42 °F 18 °F (1894)
Degree Days  
Heating Degree Days 13 10  
Month to date heating degree days 117 102  
Since 1 July heating degree days 238 226  
Cooling Degree Days 0 1  
Month to date cooling degree days 4 12  
Year to date cooling degree days 2177 2025  
Growing Degree Days 1 (Base 50)    
Moisture  
Dew Point 50 °F    
Average Humidity 80    
Maximum Humidity 100    
Minimum Humidity 60    
Precipitation  
Precipitation 0.63 in 0.15 in 1.30 in (1988)
Month to date precipitation 1.15 1.78  
Year to date precipitation 53.10 47.93  
Sea Level Pressure  
Sea Level Pressure 30.26 in    
Wind  
Wind Speed 9 mph (NNW)    
Max Wind Speed 23 mph    
Max Gust Speed 28 mph    
Visibility 8 miles    
Events Rain    
T = Trace of Precipitation, MM = Missing Value Source: NWS Daily Summary

Daily Weather History Graph

Daily Weather History Graph

Search for Another Location

Airport or City:

Trip Planner

Search our weather history database for the weather conditions in past years. The results will help you decide how hot, cold, wet, or windy it might be!

Date:

Astronomy

Nov. 12, 2012 Rise Set
Actual Time 6:22 AM CST 4:56 PM CST
Civil Twilight 5:56 AM CST 5:21 PM CST
Nautical Twilight 5:26 AM CST 5:51 PM CST
Astronomical Twilight 4:57 AM CST 6:20 PM CST
Moon 4:50 AM CST (11/12) 3:59 PM CST (11/12)
Length of Visible Light 11h 25m
Length of Day
10h 33m
Waning Crescent, 2% of the Moon is Illuminated
Nov 12
Waning Crescent
Nov 13
New
Nov 20
First Quarter
Nov 28
Full
Dec 6
Last Quarter

Hourly Weather History & Observations

Time (CST) Temp. Windchill Dew Point Humidity Pressure Visibility Wind Dir Wind Speed Gust Speed Precip Events Conditions
12:58 AM 64.9 °F - 59.0 °F 81% 30.12 in 10.0 mi South 10.4 mph - N/A   Mostly Cloudy
1:58 AM 64.0 °F - 60.1 °F 87% 30.10 in 10.0 mi South 9.2 mph - N/A   Overcast
2:53 AM 64.4 °F - 60.8 °F 88% 30.11 in 10.0 mi SSE 9.2 mph - N/A   Overcast
2:58 AM 64.0 °F - 60.1 °F 87% 30.11 in 10.0 mi South 4.6 mph - N/A   Overcast
3:38 AM 62.6 °F - 60.8 °F 94% 30.12 in 5.0 mi Calm Calm - 0.01 in Rain Light Rain
3:58 AM 63.0 °F - 61.0 °F 93% 30.09 in 10.0 mi SE 9.2 mph - 0.01 in Rain Light Rain
4:58 AM 63.0 °F - 62.1 °F 97% 30.12 in 6.0 mi West 13.8 mph - 0.06 in Rain Light Rain
5:03 AM 62.6 °F - 62.6 °F 100% 30.14 in 1.8 mi West 9.2 mph - 0.04 in Rain Heavy Rain
5:13 AM 59.0 °F - 57.2 °F 94% 30.15 in 2.0 mi NW 18.4 mph 27.6 mph 0.16 in Rain Heavy Rain
5:21 AM 57.2 °F - 55.4 °F 94% 30.16 in 5.0 mi WNW 16.1 mph 26.5 mph 0.18 in Rain Heavy Rain
5:44 AM 55.4 °F - 53.6 °F 94% 30.17 in 2.5 mi NW 18.4 mph 21.9 mph N/A Rain Heavy Rain
5:58 AM 54.0 °F - 53.1 °F 97% 30.18 in 3.0 mi NW 11.5 mph 20.7 mph 0.32 in Rain Heavy Rain
6:14 AM 53.6 °F - 53.6 °F 100% 30.19 in 5.0 mi NW 9.2 mph 18.4 mph N/A Rain Rain
6:25 AM 53.6 °F - 53.6 °F 100% 30.22 in 4.0 mi WNW 5.8 mph - 0.07 in Rain Rain
6:33 AM 53.6 °F - 53.6 °F 100% 30.22 in 1.8 mi NNW 3.5 mph - 0.11 in Rain Heavy Rain
6:43 AM 53.6 °F - 53.6 °F 100% 30.22 in 3.0 mi NNW 5.8 mph - 0.17 in Rain Rain
6:48 AM 53.6 °F - 53.6 °F 100% 30.22 in 2.5 mi North 4.6 mph - 0.18 in Rain Rain
6:56 AM 53.6 °F - 53.6 °F 100% 30.23 in 1.8 mi North 4.6 mph - 0.21 in Rain Rain
6:58 AM 54.0 °F - 53.1 °F 97% 30.22 in 2.0 mi North 5.8 mph - 0.21 in Rain Rain
7:12 AM 53.6 °F - 51.8 °F 94% 30.24 in 4.0 mi North 9.2 mph - 0.02 in Rain Rain
7:20 AM 53.6 °F - 51.8 °F 94% 30.24 in 4.0 mi North 6.9 mph - 0.02 in Rain Light Rain
7:58 AM 53.1 °F - 52.0 °F 96% 30.25 in 10.0 mi NNW 4.6 mph - 0.03 in   Overcast
8:49 AM 53.6 °F - 51.8 °F 94% 30.27 in 10.0 mi NW 9.2 mph - N/A   Overcast
8:58 AM 54.0 °F - 52.0 °F 93% 30.26 in 10.0 mi NNW 9.2 mph - N/A   Overcast
9:58 AM 54.0 °F - 51.1 °F 90% 30.30 in 10.0 mi NW 8.1 mph - N/A   Overcast
10:58 AM 55.0 °F - 51.1 °F 86% 30.31 in 10.0 mi NNW 11.5 mph - N/A   Overcast
11:58 AM 55.9 °F - 51.1 °F 84% 30.30 in 10.0 mi NNW 15.0 mph 20.7 mph N/A   Overcast
12:58 PM 57.0 °F - 50.0 °F 77% 30.30 in 10.0 mi NNW 11.5 mph - N/A   Overcast
1:13 PM 57.2 °F - 48.2 °F 72% 30.30 in 10.0 mi North 15.0 mph 19.6 mph N/A   Overcast
1:21 PM 57.2 °F - 48.2 °F 72% 30.30 in 10.0 mi NNW 11.5 mph - N/A   Overcast
1:29 PM 59.0 °F - 48.2 °F 67% 30.30 in 10.0 mi NNW 9.2 mph - N/A   Mostly Cloudy
1:58 PM 59.0 °F - 48.9 °F 69% 30.30 in 10.0 mi NNW 13.8 mph - N/A   Mostly Cloudy
2:58 PM 60.1 °F - 46.0 °F 60% 30.29 in 10.0 mi North 17.3 mph - N/A   Scattered Clouds
3:58 PM 57.0 °F - 45.0 °F 64% 30.30 in 10.0 mi North 12.7 mph - N/A   Clear
4:58 PM 52.0 °F - 41.0 °F 66% 30.33 in 10.0 mi North 12.7 mph - N/A   Clear
5:58 PM 48.0 °F - 42.1 °F 80% 30.38 in 10.0 mi North 4.6 mph - N/A   Clear
6:58 PM 45.0 °F 41.8 °F 42.1 °F 90% 30.39 in 10.0 mi North 5.8 mph - N/A   Clear
7:58 PM 45.0 °F - 41.0 °F 86% 30.40 in 10.0 mi Calm Calm - N/A   Clear
8:58 PM 43.0 °F 38.2 °F 37.9 °F 82% 30.40 in 10.0 mi NNE 8.1 mph - N/A   Clear
9:58 PM 41.0 °F 36.4 °F 36.0 °F 82% 30.41 in 10.0 mi North 6.9 mph - N/A   Clear
10:58 PM 39.9 °F 33.9 °F 34.0 °F 79% 30.41 in 10.0 mi North 9.2 mph - N/A   Clear
11:58 PM 37.9 °F 31.5 °F 33.1 °F 83% 30.40 in 10.0 mi North 9.2 mph - N/A   Clear